This demonstration page uses our WeatherBlox Daily Observations layout. Learn more.

Left ArrowRight Arrow

38.20091, -84.87328

Hourly Observations for June 30, 2020

Temp ( °F °C ) Dew Point ( °F °C ) Humidity (%) Winds ( mph kmh ) Pressure ( in mb ) Visibility ( mi km ) Precip ( " mm )
12:11 am 00:11 Cloudy with Nearby Thunderstorms 71 21.7 67 19.4 87 87 WSW 13 20 29.99 1015 8 13 0.04 1.02
12:19 am 00:19 Cloudy with Light Rain 71 21.7 67 19.4 87 87 WSW 9 15 29.99 1015 10 16 0.05 1.27
12:30 am 00:30 Cloudy with Nearby Thunderstorms 71 21.7 67 19.4 87 87 WSW 7 11 30.00 1016 10 16 0.05 1.27
12:45 am 00:45 Cloudy with Light Rain 71 21.7 68 20 90 90 SW 9 15 29.99 1015 7 11 0.07 1.78
12:53 am 00:53 Mostly Cloudy with Light Rain 71 21.7 68 20 90 90 SW 8 13 29.98 1015 9 14 0.08 2.03
1:53 am 01:53 Clear 71 21.7 68 20 90 90 N 6 9 29.93 1014 10 16 0.01 0.25
2:53 am 02:53 Mostly Cloudy 71 21.7 68 20 90 90 NNW 6 9 29.95 1014 10 16 0.00 0.00
3:15 am 03:15 Mostly Cloudy 71 21.7 68 20 90 90 Calm 29.97 1015 10 16 0.00 0.00
3:34 am 03:34 Partly Cloudy 71 21.7 67 19.4 87 87 Calm 29.97 1015 10 16 0.00 0.00
3:53 am 03:53 Clear 70 21.1 67 19.4 90 90 Calm 29.96 1015 10 16 0.00 0.00
4:53 am 04:53 Clear 70 21.1 67 19.4 90 90 Calm 29.94 1014 10 16 0.00 0.00
5:53 am 05:53 Clear 69 20.6 66 18.9 90 90 Calm 29.94 1014 8 13 0.00 0.00
6:53 am 06:53 Sunny 69 20.6 67 19.4 93 93 S 6 9 29.93 1014 10 16 0.00 0.00
7:53 am 07:53 Partly Cloudy 70 21.1 67 19.4 90 90 S 5 7 29.95 1014 10 16 0.00 0.00
8:53 am 08:53 Mostly Cloudy 72 22.2 68 20 87 87 S 7 11 29.96 1015 10 16 0.00 0.00
9:53 am 09:53 Partly Cloudy 73 22.8 68 20 84 84 SW 5 7 29.98 1015 10 16 0.00 0.00
10:53 am 10:53 Mostly Sunny 74 23.3 68 20 82 82 SW 6 9 29.98 1015 10 16 0.00 0.00
11:53 am 11:53 Mostly Sunny 76 24.4 70 21.1 82 82 SW 6 9 29.97 1015 10 16 0.00 0.00
12:19 pm 12:19 Mostly Cloudy 76 24.4 69 20.6 79 79 SW 8 13 29.97 1015 10 16 0.00 0.00
12:30 pm 12:30 Partly Cloudy 77 25 69 20.6 77 77 SW 5 7 29.97 1015 10 16 0.00 0.00
12:53 pm 12:53 Sunny 78 25.6 70 21.1 76 76 WSW 3 6 29.98 1015 10 16 0.00 0.00
1:53 pm 13:53 Sunny 80 26.7 70 21.1 71 71 VRB 3 6 29.97 1015 10 16 0.00 0.00
2:53 pm 14:53 Mostly Sunny 83 28.3 72 22.2 70 70 VRB 3 6 29.94 1014 10 16 0.00 0.00
3:45 pm 15:45 Mostly Cloudy 84 28.9 72 22.2 67 67 VRB 5 7 29.90 1012 10 16 0.00 0.00
3:53 pm 15:53 Partly Cloudy 85 29.4 71 21.7 63 63 SSW 6 9 29.91 1013 10 16 0.00 0.00
4:53 pm 16:53 Partly Cloudy 85 29.4 70 21.1 61 61 SW 8 13 29.89 1012 10 16 0.00 0.00
5:53 pm 17:53 Mostly Cloudy 84 28.9 72 22.2 67 67 SSW 3 6 29.88 1012 10 16 0.00 0.00
6:53 pm 18:53 Mostly Sunny 84 28.9 71 21.7 65 65 WSW 3 6 29.88 1012 10 16 0.00 0.00
7:53 pm 19:53 Sunny 82 27.8 69 20.6 65 65 Calm 29.88 1012 10 16 0.00 0.00
8:53 pm 20:53 Partly Cloudy 79 26.1 70 21.1 74 74 WSW 5 7 29.89 1012 10 16 0.00 0.00
9:53 pm 21:53 Cloudy 77 25 70 21.1 79 79 SSW 5 7 29.89 1012 10 16 0.00 0.00
10:53 pm 22:53 Mostly Clear 77 25 70 21.1 79 79 Calm 29.88 1012 10 16 0.00 0.00
11:53 pm 23:53 Clear 74 23.3 69 20.6 85 85 E 3 6 29.88 1012 10 16 0.00 0.00

Powered by AerisWeather